Аэропорт
Дашогуз (UTAT)

 UTAT / TAZ
ЗЦ Центральная Азия
Дашогуз (UTAT)
Дашогуз (UTAT)
 41.76110, 59.82670  / 272 ft

 UTAT 291800Z 11006KT CAVOK 28/09 Q1009 NOSIG
 TAF UTAT 291032Z 2912/3012 36012KT CAVOK TX41/2912Z TEMPO 2912/2915 01014G24KT
UTAT_aip_1705
показать схемы

Аэропорт Дашогуз — аэропорт в 10 км на юго-запад от Дашогуза, Туркмения. Основан в 1924 году.

Дашогуз является одним из старейших аэропортов Туркмении. Первый авиарейс выполнен в 1924 году. В 2009 году завершена реконструкция здания аэровокзала. 



2020 © VATRUS division (Privacy Policy)